Regional Weather Roundup
Issued by NWS

Home | Current Version | Previous Version | Text Only | Print | Product List | Glossary Off
Versions: 1 2 3 4 5 6 7 8 9 10 11 12 13 14 15 16 17 18 19 20 21 22 23 24 25 26 27 28 29 30 31 32 33 34 35 36 37 38 39 40 41 42 43 44 45 46 47 48 49 50

000
ASUS43 KBIS 211210
RWRND

NORTH DAKOTA REGIONAL WEATHER ROUNDUP
NATIONAL WEATHER SERVICE BISMARCK ND
700 AM CDT THU AUG 21 2014

NOTE: "FAIR" INDICATES FEW OR NO CLOUDS BELOW 12,000 FEET WITH NO
SIGNIFICANT WEATHER AND/OR OBSTRUCTIONS TO VISIBILITY.


NDZ001>003-009>011-017-211300-
NORTHWEST NORTH DAKOTA

CITY           SKY/WX    TMP DP  RH WIND       PRES   REMARKS
WILLISTON      PTCLDY    55  54  96 E3        29.86R FOG
6HR MIN TEMP:  54; 6HR MAX TEMP:  62;

MINOT          PTCLDY    63  61  93 NW7       29.79S
MINOT AFB      CLEAR     60  60 100 NW5       29.79S FOG
$$

NDZ018>021-031>035-040>046-211300-
SOUTHWEST NORTH DAKOTA

CITY           SKY/WX    TMP DP  RH WIND       PRES   REMARKS
BISMARCK       CLOUDY    65  64  97 NW5       29.80R
6HR MIN TEMP:  64; 6HR MAX TEMP:  70;

DICKINSON      CLEAR     56  54  93 W6        29.86R
GARRISON         N/A     64  63  96 NW9       29.81R
6HR MIN TEMP:  62; 6HR MAX TEMP:  66;

HETTINGER ARPT PTCLDY    54  52  93 NW7       29.89R
$$

NDZ004>008-012>016-024-026-027-054-211300-
NORTHEAST NORTH DAKOTA

CITY           SKY/WX    TMP DP  RH WIND       PRES   REMARKS
GRAND FORKS    CLOUDY    69  65  86 SE7       29.76R
GRND FRKS AFB  CLOUDY    68  67  99 E2        29.78R
DEVILS LAKE    CLOUDY    68  63  83 E8        29.75S
$$

NDZ022-023-025-028>030-036>039-047>053-211300-
SOUTHEAST NORTH DAKOTA

CITY           SKY/WX    TMP DP  RH WIND       PRES   REMARKS
FARGO          CLOUDY    69  67  93 NE3       29.74R
6HR MIN TEMP:  69; 6HR MAX TEMP:  72; 6HR PCP:  0.02;

JAMESTOWN      MOCLDY    68  66  93 SE8       29.73F
$$



USA.gov is the U.S. government's official web portal to all federal, state and local government web resources and services.